Regional Weather Roundup
Issued by NWS Upton, NY

Current Version | Previous Version | Graphics & Text | Print | Product List | Glossary Off
Versions: 1 2 3 4 5 6 7 8 9 10 11 12 13 14 15 16 17 18 19 20 21 22 23 24 25 26 27

000
ASUS41 KOKX 161205
RWROKX

REGIONAL WEATHER ROUNDUP
NATIONAL WEATHER SERVICE NEW YORK NY
800 AM EDT WED APR 16 2014

NOTE: "FAIR" INDICATES FEW OR NO CLOUDS BELOW 12,000 FEET WITH NO
SIGNIFICANT WEATHER AND/OR OBSTRUCTIONS TO VISIBILITY.

NYZ071-072-176-178-NJZ106-104-161300-
NEW YORK CITY METRO AREA


CITY           SKY/WX    TMP DP  RH WIND       PRES   REMARKS
CENTRAL PARK   SUNNY     32  16  51 VRB6G21   30.26R WCI  26
LAGUARDIA APRT MOSUNNY   32  16  51 N17G26    30.24R WCI  21
KENNEDY INTL   MOSUNNY   33  16  49 N22G36    30.24R WCI  21
NEWARK/LIBERTY MOSUNNY   33  19  56 N17G28    30.25R WCI  22
TETERBORO      SUNNY     34  16  47 NW16G22   30.24R WCI  24
$$

NYZ177-179-078>081-161300-
LONG ISLAND NEW YORK

CITY           SKY/WX    TMP DP  RH WIND       PRES   REMARKS
FARMINGDALE    SUNNY     32  16  51 N20G28    30.23R WCI  20
ISLIP          MOSUNNY   33  21  61 N21G31    30.18R WCI  21
SHIRLEY        SUNNY     32  19  58 NW18G30   30.22R WCI  20
WESTHAMPTON    SUNNY     33  16  49 N18G39    30.20R WCI  22
MONTAUK POINT    N/A     35  22  58 NW16G32   30.18R WCI  25
$$

NYZ052-065-067-161300-
HUDSON VALLEY

CITY           SKY/WX    TMP DP  RH WIND       PRES   REMARKS
WHITE PLAINS   SUNNY     29  17  61 NW13      30.20R WCI  19
NEWBURGH       SUNNY     28  18  64 NW14      30.25R WCI  17
MONTGOMERY     SUNNY     30  15  53 N16G22    30.25R WCI  19
POUGHKEEPSIE   SUNNY     31  15  52 NW10G22   30.25R WCI  22
ALBANY         MOSUNNY   27  13  55 NW16      30.28R WCI  15
$$

NJZ001-105-106-008-010-013-015-019>022-104-161300-
NEW JERSEY

CITY           SKY/WX    TMP DP  RH WIND       PRES   REMARKS
NEWARK/LIBERTY MOSUNNY   33  19  56 N17G28    30.25R WCI  22
TETERBORO      SUNNY     34  16  47 NW16G22   30.24R WCI  24
CALDWELL       MOSUNNY   30  16  56 NW14G22   30.25R WCI  19
MORRISTOWN     MOSUNNY   30  19  64 N14G23    30.26R WCI  20
SOMERVILLE     NOT AVBL
LINDEN         FAIR      33  18  54 N12G21    30.28R WCI  24
SUSSEX         SUNNY     30  17  58 N15G25    30.25R WCI  19
ANDOVER          N/A     28  15  58 N8        30.26R WCI  20
TRENTON        SUNNY     31  14  49 NW17G28   30.27R WCI  19
MILLVILLE      SUNNY     33  19  56 N15G21    30.28R WCI  23
ATLANTIC CITY  SUNNY     32  19  58 N15       30.26R WCI  22
WRIGHTSTOWN    SUNNY     31  18  57 NW22G28   30.25R WCI  18
TOMS RIVER     SUNNY     30  21  69 NW12      30.26R WCI  21
BELMAR         SUNNY     32  16  51 N16G28    30.24R WCI  21
$$

PAZ047>061-062-071-161300-
EASTERN PENNSYLVANIA

CITY           SKY/WX    TMP DP  RH WIND       PRES   REMARKS
PHILADELPHIA   SUNNY     32  10  40 N20G30    30.31R WCI  20
ALLENTOWN      SUNNY     28  13  53 N18G25    30.30R WCI  15
SCRANTON       SUNNY     25  13  60 N17       30.29R WCI  12
$$

CTZ002-004>006-009-010-012-RIZ004-006-007-MAZ004-011-015-161300-
SOUTHERN NEW ENGLAND
 IN CT

CITY           SKY/WX    TMP DP  RH WIND       PRES   REMARKS
BRADLEY INTL   MOSUNNY   30  15  53 NW12G24   30.20R WCI  20
HARTFORD       MOSUNNY   32  14  47 NW23G35   30.21R WCI  19
DANBURY        SUNNY     28  18  66 NW15G22   30.23R WCI  16
WTRBRY/OXFORD  SUNNY     27  10  50 N20G35    30.20R WCI  13
BRIDGEPORT     SUNNY     32  18  56 NW22G30   30.22R WCI  19
MERIDEN        SUNNY     31  17  56 NW17G24   30.21R WCI  19
NEW HAVEN      MOSUNNY   33  14  45 N13G25    30.21R WCI  24
CHESTER        FAIR      30  21  69 NW14G23   30.18R WCI  20
GROTON         MOSUNNY   34  24  67 N15G21    30.17R WCI  24
WILLIMANTIC    MOSUNNY   32  17  54 N12G29    30.19R WCI  23

 IN RI

CITY           SKY/WX    TMP DP  RH WIND       PRES   REMARKS
PROVIDENCE     MOSUNNY   33  20  58 NW16G26   30.15R WCI  23
BLOCK ISLAND   MOSUNNY   34  19  55 NW20G26   30.14R WCI  22
WESTERLY       SUNNY     33  20  58 NW15G29   30.17R WCI  23

 IN MA

CITY           SKY/WX    TMP DP  RH WIND       PRES   REMARKS
BOSTON         CLOUDY    31  19  61 NW16      30.15R WCI  20
WORCESTER      SUNNY     26  16  65 NW15G26   30.12R WCI  14
WESTFIELD      MOSUNNY   30  16  56 N18G28    30.20R WCI  18
PROVINCETOWN   CLOUDY    34  27  75 MISG      30.09R
NANTUCKET      LGT RAIN  36  33  89 NW21G30   30.06R WCI  25
$$

ANZ330-335-338-340-345-350-353-355-161300-
COASTAL MARINE OBSERVATIONS


STATION/POSITION TIME  SKY/WX   TEMP    WIND        PRES    VSBY  WAVE
                                AIR SEA DIR/SP/G                  HT/PER
                 (UTC)          (F)     (DEG/KT/KT) (MB)    (MI)  (FT/S)
NY HARB ENTRANCE 1200            34 42  340/ 21/ 25 1023.2
4S FIRE IS       1100               43                N/A           4/11
23SW MTP         1200            34 41  320/ 27/ 33 1020.6          8/ 5
HUDSON CANYON    1100            38 45  330/ 25/ 31 1019.0         12/ 8
EXECUTION ROCKS  1200            35 42  340/ 16/ 23   N/A
WESTERN LI SOUND 1200            32     330/ 14/ 17   N/A           1/ 2
CENTRAL LI SOUND 1100            33 41  320/ 23/ 29   N/A           3/ 4
EASTERN LI SOUND NOT AVBL
ROBBINS REEF     1200            31     330/ 20/ 28   N/A
$$


>>>>>>>>>>>>>>>>>>>>>>>>>>>> KEY <<<<<<<<<<<<<<<<<<<<<<<<<<<
>                                                          <
>     SKY/WX - SKY CONDITION/PRESENT WEATHER               <
>     TMP    - TEMPERATURE IN FAHRENHEIT                   <
>     DP     - DEWPOINT IN FAHRENHEIT                      <
>     RH     - RELATIVE HUMIDITY IN PERCENT                <
>     WIND   - DIRECTION AND SPEED IN MPH                  <
>     PRES   - MEAN SEA LEVEL PRESSURE IN INCHES OF HG     <
>     WCI    - WIND CHILL INDEX                            <
>     VSB    - VISIBILITY IN MILES                         <
>     HX     - HEAT INDEX                                  <
>     TC     - TEMPERATURE IN CELSIUS                      <
>     VRB    - VARIABLE WIND DIRECTION                     <
>                                                          <
>>>>>>>>>>>>>>>>>>>>>>>>>>>> KEY <<<<<<<<<<<<<<<<<<<<<<<<<<<





USA.gov is the U.S. government's official web portal to all federal, state and local government web resources and services.